Temperature
3 4 5 5 6 6 6 6 7 7 7 7 8 8 8 9 9 9 9 9 10 10 10 10 10 10 10 10 10 10 10 10 10 10 10 10 10 10 10 10 10 10 10
3 3 4 4 5 5 5 6 6 6 6 7 7 7 8 8 8 8 9 9 9 9 10 10 10 10 10 10 10 10 10 10 10 10 10 10 10 10 10 10 10 10 10
2 2 3 4 4 4 5 5 5 5 6 6 6 7 7 8 8 8 8 8 9 9 9 9 10 10 10 10 10 10 10 10 10 10 10 10 10 10 10 10 10 10 10
1 1 2 3 3 4 4 5 5 5 5 5 6 6 7 7 7 7 8 8 8 8 9 9 9 9 9 10 10 10 10 10 10 10 10 10 10 10 9 9 10 10 10
0 1 1 2 3 3 4 4 4 4 4 5 5 5 6 6 7 7 7 8 8 8 8 8 9 9 9 9 9 9 9 9 9 10 10 10 10 10 10 9 9 9 9
-0 0 1 2 2 3 3 4 4 4 4 4 4 5 5 6 6 6 7 7 7 7 8 8 8 9 9 9 9 9 9 9 9 9 9 10 10 10 10 9 9 9 9
-1 -0 0 1 2 2 3 3 3 4 4 4 4 4 4 5 5 6 6 6 7 7 7 7 8 8 8 8 9 9 9 9 9 9 9 9 9 9 10 10 9 8 8
-2 -1 -1 0 1 1 2 2 3 3 3 3 4 4 4 4 5 5 5 6 6 7 7 7 7 8 8 8 8 8 8 8 8 9 9 9 9 9 9 9 9 8 8
-2 -2 -1 -0 -0 1 1 1 2 2 3 3 3 3 3 4 4 4 5 5 6 6 6 7 7 7 7 7 8 8 8 8 8 8 8 8 8 8 8 8 9 8 8
-3 -2 -2 -1 -1 -0 0 1 1 2 2 2 3 3 3 3 3 4 4 5 5 5 6 6 6 6 7 7 7 7 7 7 8 8 8 8 8 8 8 8 8 8 8
-3 -3 -2 -1 -1 -0 -0 0 1 1 2 2 2 2 3 3 3 3 4 4 5 5 5 6 6 6 6 6 6 7 7 7 7 7 7 7 7 8 7 8 8 8 8
-3 -3 -3 -2 -2 -1 -0 -0 0 1 1 1 1 2 2 2 3 3 3 4 4 4 5 5 5 5 5 6 6 6 6 6 7 7 7 7 7 7 7 7 7 7 7
-4 -3 -3 -3 -2 -2 -1 -1 -1 -0 0 0 1 1 2 2 2 2 3 3 4 4 4 4 5 5 5 5 6 6 6 6 6 6 7 7 7 7 7 7 7 7 7
-4 -4 -4 -3 -3 -3 -2 -2 -1 -1 -1 -0 0 0 1 1 2 2 2 3 3 4 4 4 4 5 5 5 5 5 6 6 6 6 6 6 6 6 6 6 6 6 6
-5 -4 -4 -4 -4 -3 -3 -2 -2 -2 -1 -1 -1 -0 0 1 1 1 2 2 3 3 3 4 4 4 4 4 4 5 5 5 6 6 6 6 6 6 6 6 6 6 6
-5 -5 -5 -5 -4 -4 -4 -3 -3 -2 -2 -2 -1 -1 -1 -0 0 0 1 1 2 2 3 3 3 4 4 4 4 4 5 5 5 5 6 6 6 5 5 5 5 5 5
-6 -6 -5 -5 -5 -5 -4 -4 -3 -3 -3 -2 -2 -2 -1 -1 -1 -0 0 1 1 2 2 2 3 3 3 3 4 4 4 4 5 5 5 5 5 5 5 5 5 5 5
-6 -6 -6 -5 -5 -5 -5 -4 -4 -4 -3 -3 -3 -2 -2 -2 -1 -1 -1 -0 0 1 1 2 2 2 3 3 3 3 4 4 4 4 4 4 5 5 5 5 4 4 4
-7 -6 -6 -6 -6 -5 -5 -5 -4 -4 -4 -4 -3 -3 -3 -2 -2 -2 -1 -1 -1 -0 0 1 1 2 2 2 3 3 3 3 3 3 3 4 4 4 4 4 4 4 4
-7 -7 -6 -6 -6 -6 -6 -5 -5 -5 -5 -4 -4 -4 -3 -3 -3 -2 -2 -2 -1 -1 -1 -0 1 1 1 2 2 2 2 2 3 3 3 3 3 3 3 3 3 3 3
-7 -7 -7 -7 -6 -6 -6 -6 -6 -5 -5 -5 -5 -4 -4 -4 -3 -3 -3 -2 -2 -2 -1 -1 -0 0 1 1 1 2 2 2 2 2 2 2 2 3 3 3 3 3 3
-7 -7 -7 -7 -7 -7 -7 -7 -6 -6 -6 -5 -5 -5 -4 -4 -4 -4 -3 -3 -2 -2 -2 -1 -1 -0 0 0 1 1 1 1 1 2 2 2 2 2 2 2 2 2 2
-8 -8 -8 -7 -7 -7 -7 -7 -7 -6 -6 -6 -5 -5 -5 -5 -5 -4 -4 -3 -3 -3 -3 -2 -2 -1 -1 -0 -0 0 1 1 1 1 1 1 1 1 1 1 1 2 2
-8 -8 -8 -8 -8 -7 -8 -7 -7 -7 -7 -6 -6 -6 -5 -5 -5 -5 -5 -4 -4 -4 -3 -3 -3 -2 -2 -1 -1 -0 -0 0 0 0 0 1 1 1 1 1 1 1 1
-8 -8 -8 -8 -8 -8 -8 -8 -7 -7 -7 -7 -7 -6 -6 -6 -6 -6 -5 -5 -5 -4 -4 -4 -3 -3 -2 -2 -2 -1 -1 -1 -1 -1 -0 -0 -0 -0 0 -0 -0 -0 -0
-9 -9 -9 -8 -8 -8 -8 -8 -8 -8 -8 -7 -7 -7 -7 -7 -6 -6 -6 -5 -5 -5 -4 -4 -4 -3 -3 -2 -2 -2 -2 -1 -1 -1 -1 -1 -1 -1 -1 -1 -0 -1 -1
Wind_Speed
5 5 4 4 3 3 3 2 1 1 1 0 0 1 2 2 2 2 4 5 6 7 7 5 5 5 4 5 5 5 5 4 4 4 3 3 3 3 2 2 3 3 3
7 6 5 4 4 3 3 3 2 1 1 1 1 2 2 2 2 2 3 5 6 7 7 6 4 4 4 5 6 5 4 3 3 3 4 2 1 1 1 1 2 2 2
7 7 7 6 5 4 3 3 3 2 2 1 0 1 1 0 0 1 2 3 5 6 7 7 6 5 4 6 7 6 5 4 3 2 3 4 3 1 1 1 1 1 2
6 6 6 7 6 5 4 3 3 3 2 0 1 2 1 2 2 2 2 3 4 5 7 8 7 6 4 5 6 6 4 5 5 2 1 1 3 3 2 0 0 1 1
6 6 6 6 7 5 4 3 4 3 3 1 2 3 1 1 1 1 2 2 2 4 6 7 7 6 5 5 5 5 5 4 5 4 2 2 2 2 3 2 1 0 0
6 7 7 7 7 6 4 4 4 4 3 2 2 3 3 2 1 2 2 2 2 3 4 5 6 6 5 6 6 6 6 5 4 3 3 3 3 3 3 3 3 2 1
7 8 9 9 8 7 6 5 5 5 4 2 2 3 3 3 3 3 3 3 2 3 4 4 4 4 5 6 6 6 6 6 6 5 4 3 2 3 3 4 3 2 0
7 7 7 7 7 7 7 6 5 6 5 3 3 3 3 3 3 3 3 4 4 4 4 5 5 5 6 6 6 5 5 5 5 6 5 3 3 3 3 4 4 3 1
7 7 7 7 7 7 6 5 5 6 5 4 4 3 3 3 3 4 3 3 3 4 4 4 4 4 5 5 5 5 6 5 5 5 5 4 3 3 3 3 4 5 4
8 8 8 7 7 6 6 5 5 5 6 5 3 3 3 3 3 4 4 4 4 4 4 4 4 4 4 5 5 5 5 6 5 4 5 4 3 3 3 3 3 3 4
8 8 8 7 7 6 5 5 5 5 5 5 4 4 4 3 3 3 4 4 4 4 4 4 5 5 5 5 6 6 6 6 5 4 5 5 4 4 3 3 3 2 3
7 7 8 7 7 7 6 5 5 5 5 5 5 4 4 3 3 4 4 4 4 4 4 3 4 5 5 5 6 6 6 7 7 6 5 5 4 5 4 4 4 4 3
8 8 7 7 7 7 6 6 6 5 5 5 5 4 4 3 3 4 4 4 4 4 3 3 4 5 5 6 6 6 6 7 7 7 7 6 5 5 4 5 5 4 3
8 8 8 7 8 8 7 7 7 6 5 5 5 5 5 5 4 4 4 3 4 3 3 3 3 4 5 6 6 6 6 6 6 6 6 6 6 6 6 5 5 4 4
9 9 8 8 8 8 8 8 7 7 6 5 6 6 5 5 4 4 4 3 4 3 3 3 3 3 4 5 6 6 6 6 6 5 5 5 6 7 6 5 5 6 5
10 9 9 9 9 9 9 9 9 8 6 6 6 6 5 4 4 4 3 3 4 3 2 3 3 3 3 4 5 6 6 6 6 6 5 5 6 7 7 7 6 7 7
9 9 9 8 8 8 8 8 9 8 7 6 6 6 6 4 4 4 3 4 4 3 2 3 3 4 4 4 4 5 5 5 6 6 5 4 4 6 5 5 6 5 6
9 9 9 9 8 8 8 8 8 7 7 7 7 7 6 5 4 4 4 5 4 3 3 3 3 3 4 4 4 4 4 5 5 6 6 6 5 5 6 5 4 4 4
7 8 8 8 8 9 8 8 8 7 8 8 8 8 6 5 4 4 4 5 4 4 4 4 3 3 4 4 4 4 4 4 5 5 5 6 6 7 8 6 5 4 2
7 7 7 8 8 9 8 7 8 8 8 8 9 8 7 6 5 5 5 4 4 4 4 4 3 3 4 4 4 4 3 4 4 3 4 6 6 7 8 7 6 6 4
7 7 7 7 7 8 7 7 8 8 9 8 8 8 7 6 5 5 4 4 4 4 3 3 3 3 4 4 4 5 4 4 4 3 3 4 6 7 7 7 6 6 5
8 8 7 8 7 7 6 7 8 9 9 8 8 8 8 6 5 5 4 3 3 3 3 3 3 3 2 3 4 5 5 5 4 4 3 4 6 6 7 6 6 6 5
8 7 7 8 8 6 6 7 9 9 8 8 8 8 8 6 5 4 4 3 2 2 2 2 3 2 2 2 3 2 3 3 3 3 4 5 6 5 4 5 6 6 4
7 7 7 7 8 7 7 7 8 8 7 8 8 7 6 6 5 4 3 2 2 2 2 3 3 2 2 1 1 1 1 2 2 3 4 5 5 4 4 3 3 3 4
7 6 7 7 8 8 8 8 8 7 7 7 7 6 6 5 4 4 3 3 2 3 3 3 3 2 2 3 3 2 2 2 3 3 2 2 3 3 2 2 2 3 3
7 7 7 8 8 7 8 8 7 7 6 6 6 5 5 4 4 4 5 6 5 6 5 4 3 3 3 3 2 2 2 3 5 4 3 3 4 4 4 4 3 3 3
Wind_Direction
318 335 343 350 355 6 1 336 77 11 14 47 149 184 206 213 208 218 198 190 188 179 169 162 158 160 164 164 152 138 132 128 128 110 94 57 61 72 71 88 95 85 91
338 342 348 353 352 352 343 335 353 281 247 238 226 223 226 223 227 234 215 201 195 188 178 165 168 169 162 159 157 146 144 146 154 137 130 125 40 24 51 73 96 93 91
331 336 344 346 346 343 327 324 326 315 275 278 245 34 42 40 166 256 248 238 210 198 186 176 172 173 171 176 173 165 160 167 184 168 148 154 189 183 8 62 86 99 117
335 335 340 338 335 329 324 335 325 331 317 268 190 180 206 237 260 240 239 269 228 209 192 180 176 177 179 179 181 174 168 162 173 172 74 127 148 153 164 237 81 94 115
332 333 333 325 321 323 330 337 331 330 324 313 222 210 229 260 282 274 245 250 258 226 203 185 179 179 185 186 182 178 177 176 174 168 150 118 94 125 152 179 198 133 236
340 341 338 337 335 339 349 347 332 323 324 325 278 229 230 249 257 261 241 239 250 241 216 195 188 186 187 190 188 186 186 186 174 169 164 163 161 172 163 170 183 196 230
344 344 343 342 343 343 345 339 337 327 319 310 298 275 244 232 231 240 231 238 252 254 220 209 203 196 196 194 188 183 190 188 181 181 187 185 181 162 155 151 160 166 200
341 336 333 334 336 337 338 336 334 329 326 319 298 299 274 245 248 255 247 235 237 255 239 216 211 207 199 192 188 184 191 191 192 190 187 186 184 168 163 158 151 151 186
339 336 335 336 335 333 329 328 327 328 323 315 314 304 291 273 266 265 257 251 257 266 257 224 213 211 204 193 187 190 193 191 195 194 191 190 186 179 178 161 163 163 185
340 337 334 334 332 327 323 330 332 326 319 315 312 310 299 279 269 267 261 255 265 270 250 237 213 209 208 202 190 189 190 191 195 189 188 190 182 175 177 175 175 174 173
327 327 328 330 327 328 331 338 337 331 330 330 320 315 308 306 291 271 266 258 258 264 242 244 222 210 209 206 199 197 190 193 194 189 189 195 182 178 183 176 174 176 165
323 326 329 333 335 335 338 337 330 330 327 325 321 309 305 299 296 287 279 271 260 261 241 244 239 217 210 207 205 200 196 196 198 195 191 197 189 186 184 183 188 189 184
330 334 336 339 338 335 335 331 328 325 326 327 324 315 309 298 287 290 283 280 273 268 251 231 242 230 215 209 208 202 197 200 201 197 196 197 187 196 193 190 192 191 186
331 333 333 333 333 335 334 331 331 328 329 329 324 314 307 303 293 294 289 283 277 259 251 240 247 242 221 211 205 204 201 203 205 201 199 196 196 202 196 194 195 183 180
335 334 331 329 332 336 337 334 329 329 328 326 319 310 308 309 309 306 302 295 290 270 257 253 253 254 226 213 206 204 204 203 202 198 197 199 201 201 198 197 192 183 186
329 329 330 331 331 333 332 332 328 325 322 317 310 307 305 306 305 303 300 300 292 280 263 253 246 257 244 226 217 209 207 202 201 201 200 202 203 205 202 201 195 190 189
321 325 325 322 322 323 324 324 320 321 322 314 311 314 307 299 299 300 300 294 283 280 274 264 250 253 257 234 222 215 211 203 202 202 199 200 202 195 196 197 197 205 204
319 321 321 321 323 323 323 321 322 326 325 322 320 315 309 299 298 298 294 293 282 268 262 261 253 252 260 242 220 219 212 207 204 203 198 199 199 198 189 183 188 201 214
309 311 313 315 321 324 327 327 328 331 331 329 323 319 314 305 298 291 284 281 275 271 263 258 249 245 257 249 222 219 215 209 205 201 197 195 195 194 184 180 184 190 204
315 317 320 323 324 324 330 332 329 332 329 324 320 317 314 304 292 283 281 278 269 265 269 268 256 242 247 253 237 223 208 207 202 195 195 194 192 189 185 185 183 193 198
317 321 322 322 319 324 333 330 328 323 318 318 319 320 318 310 296 294 281 265 263 264 265 269 272 257 248 255 244 226 205 205 201 197 195 195 185 186 186 186 187 192 176
323 326 325 321 321 328 331 326 321 317 320 323 323 323 323 319 316 308 293 270 253 255 261 269 285 286 270 266 249 229 215 203 197 200 193 186 177 179 181 185 182 172 160
318 322 321 320 324 329 328 319 315 320 324 326 324 323 325 326 327 318 304 287 258 244 253 255 266 280 282 282 289 244 209 189 187 180 170 165 168 170 175 178 174 168 167
317 319 322 322 321 324 324 315 314 321 324 323 322 322 327 331 336 331 322 309 273 252 251 251 253 256 263 259 275 256 195 154 151 139 137 139 150 156 151 155 165 172 171
314 316 316 314 312 317 319 319 320 322 323 321 321 325 326 327 331 334 330 321 307 265 256 253 249 243 245 250 266 235 203 187 173 145 139 142 153 154 153 151 155 160 165
313 316 317 317 315 317 317 319 320 321 321 324 326 324 324 326 330 332 334 340 331 328 314 298 276 261 259 267 255 246 199 175 158 150 164 177 177 176 175 175 173 171 177
Height
1504 1503 1503 1504 1504 1505 1505 1506 1507 1507 1508 1509 1510 1512 1514 1517 1519 1521 1524 1526 1528 1530 1532 1535 1537 1540 1542 1545 1548 1550 1553 1555 1558 1560 1562 1564 1566 1567 1569 1570 1571 1572 1573
1501 1501 1501 1501 1502 1502 1503 1504 1505 1506 1506 1508 1508 1510 1512 1514 1516 1518 1520 1523 1525 1527 1529 1531 1534 1537 1539 1542 1545 1547 1550 1552 1555 1558 1560 1562 1565 1565 1567 1568 1570 1571 1572
1501 1500 1499 1499 1500 1500 1501 1502 1503 1504 1505 1506 1507 1508 1509 1511 1512 1514 1517 1519 1521 1524 1525 1527 1531 1533 1536 1539 1541 1544 1547 1549 1553 1555 1557 1559 1560 1563 1565 1566 1567 1569 1570
1500 1499 1498 1498 1498 1498 1499 1500 1501 1501 1503 1503 1503 1504 1505 1506 1507 1511 1513 1516 1518 1520 1522 1524 1527 1530 1533 1535 1538 1541 1544 1547 1549 1551 1554 1556 1557 1559 1561 1564 1565 1566 1567
1500 1498 1498 1498 1497 1497 1497 1497 1498 1499 1500 1500 1501 1502 1503 1504 1506 1508 1510 1512 1514 1516 1519 1520 1523 1526 1529 1532 1535 1537 1540 1543 1546 1548 1550 1552 1554 1556 1558 1559 1562 1564 1565
1499 1498 1497 1497 1496 1495 1495 1496 1496 1497 1497 1497 1498 1499 1500 1501 1503 1504 1505 1508 1510 1512 1514 1516 1519 1522 1525 1528 1531 1534 1537 1540 1542 1545 1547 1549 1551 1552 1555 1556 1558 1560 1562
1498 1497 1495 1494 1494 1493 1493 1494 1493 1493 1494 1494 1495 1496 1497 1498 1499 1500 1501 1503 1506 1508 1510 1512 1515 1518 1521 1524 1527 1530 1533 1536 1538 1541 1544 1546 1548 1550 1552 1553 1554 1556 1558
1497 1496 1495 1493 1492 1492 1492 1492 1492 1491 1491 1491 1492 1493 1494 1495 1497 1498 1498 1500 1502 1504 1506 1508 1511 1514 1517 1520 1523 1525 1529 1531 1534 1537 1540 1542 1544 1546 1548 1550 1551 1553 1555
1497 1495 1493 1492 1491 1490 1490 1489 1489 1489 1489 1489 1489 1490 1491 1492 1493 1494 1495 1496 1498 1500 1503 1504 1507 1509 1512 1515 1518 1520 1524 1527 1530 1533 1536 1538 1540 1542 1545 1547 1549 1550 1551
1495 1493 1492 1491 1489 1488 1488 1487 1486 1486 1486 1485 1486 1486 1488 1489 1490 1491 1492 1493 1495 1497 1498 1500 1502 1505 1508 1511 1513 1516 1519 1522 1525 1528 1531 1534 1536 1538 1541 1543 1545 1546 1548
1494 1492 1490 1488 1487 1486 1485 1484 1484 1484 1483 1483 1483 1483 1484 1485 1486 1488 1489 1490 1492 1493 1494 1496 1498 1500 1503 1506 1509 1512 1515 1518 1520 1523 1526 1529 1532 1534 1537 1539 1540 1542 1544
1494 1491 1488 1486 1485 1483 1482 1481 1481 1481 1480 1480 1480 1480 1480 1481 1483 1483 1485 1486 1488 1489 1491 1492 1494 1496 1499 1501 1504 1507 1510 1513 1515 1518 1521 1524 1527 1530 1532 1534 1536 1538 1539
1493 1489 1487 1485 1483 1482 1480 1480 1478 1478 1477 1476 1476 1476 1477 1477 1478 1479 1480 1481 1483 1484 1486 1488 1490 1492 1495 1497 1500 1502 1505 1508 1511 1513 1516 1519 1522 1524 1527 1529 1531 1533 1535
1491 1488 1486 1484 1482 1480 1478 1477 1475 1475 1474 1474 1473 1473 1473 1473 1474 1475 1476 1477 1478 1480 1481 1484 1486 1488 1491 1493 1495 1498 1501 1504 1506 1509 1511 1514 1517 1519 1522 1524 1526 1528 1530
1490 1487 1485 1483 1481 1478 1476 1474 1473 1472 1471 1470 1470 1469 1469 1469 1470 1470 1471 1472 1474 1475 1477 1479 1481 1483 1485 1488 1490 1493 1496 1499 1501 1504 1506 1509 1512 1514 1517 1519 1521 1523 1525
1489 1487 1484 1482 1479 1477 1474 1472 1470 1469 1468 1467 1467 1466 1466 1466 1466 1467 1468 1469 1469 1470 1471 1474 1476 1478 1480 1483 1486 1488 1491 1493 1496 1498 1501 1504 1507 1509 1511 1514 1516 1518 1519
1489 1486 1483 1481 1478 1475 1473 1470 1468 1467 1466 1464 1463 1463 1462 1462 1462 1462 1463 1464 1465 1466 1467 1469 1471 1473 1475 1478 1481 1483 1486 1488 1491 1493 1496 1498 1501 1504 1506 1508 1510 1512 1514
1487 1484 1481 1479 1476 1474 1471 1469 1467 1465 1463 1461 1460 1459 1459 1458 1458 1458 1459 1460 1461 1461 1463 1464 1466 1468 1470 1473 1476 1478 1481 1483 1485 1488 1490 1493 1495 1498 1500 1502 1504 1506 1508
1486 1483 1480 1477 1474 1471 1469 1466 1464 1462 1460 1458 1457 1456 1455 1454 1454 1454 1455 1456 1456 1457 1459 1460 1461 1463 1465 1468 1470 1473 1475 1477 1480 1482 1485 1487 1489 1492 1494 1497 1498 1500 1503
1484 1481 1477 1474 1471 1469 1466 1463 1461 1459 1457 1455 1454 1453 1452 1451 1450 1450 1450 1451 1452 1453 1454 1455 1457 1459 1461 1463 1465 1468 1469 1472 1474 1477 1479 1482 1484 1486 1489 1491 1493 1494 1497
1481 1478 1475 1472 1469 1466 1464 1461 1459 1457 1455 1454 1452 1450 1448 1447 1447 1446 1446 1447 1448 1448 1449 1450 1452 1454 1456 1458 1460 1463 1465 1467 1469 1471 1474 1477 1479 1481 1484 1486 1487 1489 1493
1477 1475 1472 1468 1466 1464 1461 1458 1456 1455 1453 1451 1449 1447 1445 1444 1443 1443 1443 1443 1444 1444 1445 1446 1448 1450 1452 1453 1455 1458 1461 1463 1465 1466 1469 1471 1474 1476 1479 1481 1482 1485 1488
1475 1472 1469 1466 1463 1461 1459 1456 1454 1453 1450 1448 1446 1444 1443 1441 1440 1440 1439 1439 1440 1440 1441 1442 1443 1445 1447 1449 1451 1453 1455 1458 1460 1461 1464 1466 1469 1471 1473 1476 1478 1480 1482
1473 1470 1467 1463 1460 1459 1457 1454 1452 1450 1447 1445 1443 1441 1440 1438 1437 1436 1436 1436 1436 1436 1437 1438 1440 1441 1443 1445 1447 1448 1450 1452 1455 1457 1459 1461 1464 1466 1468 1470 1473 1475 1477
1471 1468 1465 1461 1458 1456 1454 1452 1450 1448 1445 1443 1441 1439 1437 1436 1435 1433 1433 1432 1432 1433 1434 1434 1436 1437 1439 1441 1443 1445 1446 1448 1450 1452 1455 1457 1459 1461 1463 1466 1468 1470 1473
1468 1465 1462 1459 1456 1454 1452 1450 1448 1445 1442 1440 1438 1436 1435 1434 1432 1431 1430 1430 1430 1430 1431 1432 1434 1435 1436 1437 1439 1441 1443 1445 1447 1449 1450 1452 1454 1456 1459 1461 1463 1466 1468